TimeEST,TemperatureF,Dew PointF,Humidity,Sea Level PressureIn,VisibilityMPH,Wind Direction,Wind SpeedMPH,Gust SpeedMPH,PrecipitationIn,Events,Conditions,WindDirDegrees,DateUTC
12:15 AM,55.4,53.6,94,29.37,7.0,West,4.6,17.3,N/A,Rain,Rain,260,2013-01-30 05:15:00
12:34 AM,53.6,53.6,100,29.36,10.0,NW,4.6,-,N/A,Rain,Light Rain,310,2013-01-30 05:34:00
12:55 AM,53.6,51.8,94,29.36,10.0,West,4.6,-,N/A,Rain,Light Rain,270,2013-01-30 05:55:00
1:15 AM,53.6,51.8,94,29.34,2.5,NNW,10.4,-,N/A,Rain,Heavy Rain,340,2013-01-30 06:15:00
1:34 AM,53.6,51.8,94,29.37,2.5,NW,13.8,-,N/A,Rain,Heavy Rain,310,2013-01-30 06:34:00
1:55 AM,53.6,51.8,94,29.36,5.0,NW,10.4,19.6,N/A,Rain,Heavy Rain,310,2013-01-30 06:55:00
2:15 AM,51.8,51.8,100,29.34,7.0,NNW,16.1,23.0,N/A,Rain,Rain,340,2013-01-30 07:15:00
2:34 AM,51.8,51.8,100,29.38,7.0,NW,8.1,-,N/A,Rain,Rain,310,2013-01-30 07:34:00
2:55 AM,51.8,51.8,100,29.39,7.0,NW,4.6,-,N/A,Rain,Rain,320,2013-01-30 07:55:00
3:15 AM,51.8,51.8,100,29.36,10.0,Calm,Calm,-,N/A,Rain,Light Rain,0,2013-01-30 08:15:00
3:34 AM,51.8,51.8,100,29.35,10.0,Calm,Calm,-,N/A,Rain,Light Rain,0,2013-01-30 08:34:00
3:55 AM,51.8,50.0,94,29.36,2.0,Calm,Calm,-,N/A,Rain,Light Rain,0,2013-01-30 08:55:00
4:14 AM,48.2,48.2,100,29.35,1.0,Calm,Calm,-,N/A,Rain,Rain,0,2013-01-30 09:14:00
4:35 AM,50.0,48.2,94,29.35,1.0,Calm,Calm,-,N/A,Rain,Light Rain,0,2013-01-30 09:35:00
4:55 AM,48.2,48.2,100,29.37,0.8,Calm,Calm,-,N/A,Rain,Heavy Rain,0,2013-01-30 09:55:00
5:14 AM,48.2,48.2,100,29.38,0.8,Calm,Calm,-,N/A,Rain,Rain,0,2013-01-30 10:14:00
5:35 AM,50.0,48.2,94,29.35,0.8,Calm,Calm,-,N/A,Rain,Rain,0,2013-01-30 10:35:00
5:55 AM,50.0,48.2,94,29.31,1.2,SE,8.1,-,N/A,Rain,Light Rain,140,2013-01-30 10:55:00
6:15 AM,50.0,48.2,94,29.32,0.5,Calm,Calm,-,N/A,,Light Drizzle,0,2013-01-30 11:15:00
6:35 AM,48.2,48.2,100,29.29,0.8,SSE,4.6,-,N/A,,Light Drizzle,150,2013-01-30 11:35:00
6:55 AM,48.2,48.2,100,29.30,1.2,South,5.8,-,N/A,,Light Drizzle,180,2013-01-30 11:55:00
7:15 AM,48.2,48.2,100,29.29,1.2,South,4.6,-,N/A,,Overcast,180,2013-01-30 12:15:00
7:35 AM,48.2,48.2,100,29.28,0.8,Calm,Calm,-,N/A,,Overcast,0,2013-01-30 12:35:00
7:54 AM,48.2,48.2,100,29.29,3.0,Calm,Calm,-,N/A,,Overcast,0,2013-01-30 12:54:00
8:15 AM,48.2,48.2,100,29.28,5.0,SSW,3.5,-,N/A,,Overcast,200,2013-01-30 13:15:00
8:35 AM,48.2,48.2,100,29.27,3.0,Calm,Calm,-,N/A,,Overcast,0,2013-01-30 13:35:00
8:54 AM,48.2,48.2,100,29.30,0.5,SW,6.9,-,N/A,Fog,Fog,220,2013-01-30 13:54:00
9:15 AM,48.2,48.2,100,29.29,0.5,SW,6.9,-,N/A,Fog,Fog,220,2013-01-30 14:15:00
9:35 AM,48.2,48.2,100,29.32,0.5,SW,8.1,-,N/A,Fog,Fog,230,2013-01-30 14:35:00
9:54 AM,48.2,48.2,100,29.32,1.5,SW,9.2,-,N/A,,Overcast,220,2013-01-30 14:54:00
10:15 AM,48.2,48.2,100,29.31,2.5,SW,6.9,-,N/A,,Overcast,220,2013-01-30 15:15:00
10:34 AM,48.2,48.2,100,29.28,1.0,SSW,10.4,-,N/A,Rain,Light Rain,210,2013-01-30 15:34:00
10:55 AM,48.2,48.2,100,29.28,1.2,SSW,12.7,-,N/A,,Overcast,200,2013-01-30 15:55:00
11:15 AM,48.2,48.2,100,29.27,2.5,SSW,11.5,-,N/A,,Overcast,210,2013-01-30 16:15:00
11:34 AM,48.2,48.2,100,29.27,3.0,SW,11.5,18.4,N/A,,Overcast,220,2013-01-30 16:34:00
11:55 AM,48.2,48.2,100,29.28,5.0,SSW,15.0,-,N/A,,Overcast,210,2013-01-30 16:55:00
12:15 PM,48.2,48.2,100,29.24,5.0,SW,11.5,-,N/A,,Overcast,220,2013-01-30 17:15:00
12:34 PM,48.2,48.2,100,29.22,5.0,SW,11.5,-,N/A,,Overcast,220,2013-01-30 17:34:00
12:55 PM,48.2,48.2,100,29.21,7.0,SSW,12.7,-,N/A,,Overcast,210,2013-01-30 17:55:00
1:15 PM,48.2,48.2,100,29.21,2.5,SW,16.1,20.7,N/A,,Overcast,220,2013-01-30 18:15:00
1:34 PM,48.2,48.2,100,29.22,2.5,SSW,16.1,25.3,N/A,,Overcast,210,2013-01-30 18:34:00
1:55 PM,48.2,48.2,100,29.21,4.0,SW,19.6,27.6,N/A,Rain,Light Rain,220,2013-01-30 18:55:00
2:15 PM,50.0,48.2,94,29.18,10.0,SW,16.1,23.0,N/A,,Overcast,220,2013-01-30 19:15:00
2:35 PM,50.0,48.2,94,29.18,7.0,SW,19.6,28.8,N/A,,Overcast,230,2013-01-30 19:35:00
2:55 PM,48.2,46.4,93,29.17,7.0,SSW,16.1,-,N/A,,Light Drizzle,200,2013-01-30 19:55:00
3:14 PM,50.0,48.2,94,29.17,10.0,SSW,16.1,-,N/A,,Mostly Cloudy,210,2013-01-30 20:14:00
3:35 PM,50.0,46.4,87,29.15,7.0,SSW,19.6,24.2,N/A,Rain,Rain,200,2013-01-30 20:35:00
3:55 PM,46.4,42.8,87,29.18,7.0,WSW,16.1,28.8,N/A,Rain,Light Rain,240,2013-01-30 20:55:00
4:15 PM,44.6,41.0,87,29.18,7.0,WSW,17.3,23.0,N/A,Rain,Heavy Rain,240,2013-01-30 21:15:00
4:35 PM,44.6,41.0,87,29.19,10.0,SW,16.1,23.0,N/A,Rain,Light Rain,230,2013-01-30 21:35:00
4:54 PM,44.6,41.0,87,29.18,10.0,WSW,19.6,27.6,N/A,,Drizzle,240,2013-01-30 21:54:00
5:15 PM,42.8,39.2,87,29.18,10.0,WSW,19.6,25.3,N/A,,Overcast,240,2013-01-30 22:15:00
5:35 PM,41.0,37.4,87,29.18,10.0,WSW,15.0,23.0,N/A,Rain,Light Rain,250,2013-01-30 22:35:00
5:54 PM,39.2,37.4,93,29.21,10.0,WSW,21.9,31.1,N/A,Rain,Light Rain,240,2013-01-30 22:54:00
6:15 PM,37.4,35.6,93,29.21,7.0,WSW,21.9,28.8,N/A,Rain,Light Rain,240,2013-01-30 23:15:00
6:34 PM,37.4,35.6,93,29.21,10.0,WSW,17.3,23.0,N/A,,Light Drizzle,240,2013-01-30 23:34:00
6:55 PM,37.4,35.6,93,29.20,10.0,WSW,17.3,25.3,N/A,,Overcast,240,2013-01-30 23:55:00
7:15 PM,37.4,33.8,87,29.21,10.0,WSW,15.0,19.6,N/A,,Overcast,240,2013-01-31 00:15:00
7:34 PM,37.4,33.8,87,29.22,10.0,WSW,16.1,26.5,N/A,,Overcast,240,2013-01-31 00:34:00
7:55 PM,35.6,33.8,93,29.22,5.0,West,19.6,25.3,N/A,Rain,Light Rain,270,2013-01-31 00:55:00
8:15 PM,35.6,32.0,87,29.25,7.0,West,12.7,25.3,N/A,,Overcast,280,2013-01-31 01:15:00
8:34 PM,33.8,30.2,87,29.26,7.0,WNW,15.0,27.6,N/A,,Overcast,290,2013-01-31 01:34:00
8:55 PM,32.0,30.2,93,29.28,10.0,West,15.0,33.4,N/A,Snow,Light Snow,280,2013-01-31 01:55:00
9:15 PM,30.2,28.4,93,29.30,7.0,WNW,13.8,26.5,N/A,Snow,Light Snow,290,2013-01-31 02:15:00
9:34 PM,30.2,28.4,93,29.31,4.0,WNW,16.1,26.5,N/A,Snow,Light Snow,300,2013-01-31 02:34:00
9:55 PM,30.2,26.6,86,29.32,4.0,WNW,15.0,32.2,N/A,Snow,Light Snow,290,2013-01-31 02:55:00
10:15 PM,28.4,26.6,93,29.33,10.0,WNW,16.1,26.5,N/A,Snow,Light Snow,300,2013-01-31 03:15:00
10:35 PM,28.4,26.6,93,29.35,5.0,WNW,19.6,28.8,N/A,Snow,Light Snow,290,2013-01-31 03:35:00
10:55 PM,28.4,24.8,86,29.36,10.0,West,17.3,24.2,N/A,Snow,Light Snow,280,2013-01-31 03:55:00
11:14 PM,28.4,24.8,86,29.37,5.0,West,15.0,24.2,N/A,Snow,Light Snow,280,2013-01-31 04:14:00
11:35 PM,26.6,24.8,93,29.39,2.0,WNW,13.8,26.5,N/A,Snow,Light Snow,290,2013-01-31 04:35:00
11:55 PM,28.4,24.8,86,29.40,10.0,West,17.3,33.4,N/A,,Overcast,280,2013-01-31 04:55:00